Погода в Трубетчине

Россия / Липецкая область     52°53′19″N   39°32′51″E
темп.,
°C
ветер,
м/с
пор.,
м/с
влажн.,
%
обл.,
%
осадки,
мм/ч
давл.,
гПа
погр.,
м
25 октября, пн
пн2500:00+1сз711765 0.0 1023740
03:000ссз612805 0.0 1025601
06:00−1сз511825 0.0 1027461
09:000ссз69745 0.0 1029559
12:00+3ссз5656100 0.0 1030876
15:00+3сз455159 0.0 1030929
18:00+1зсз23625 0.0 103153
21:000з33645 0.0 103162
26 октября, вт
вт2600:00−1зюз36675 0.0 1031132
03:00−1зюз49712 0.0 1031203
06:00−1зюз41172100 0.0 1030249
09:00+1зюз51163100 0.0 1030312
12:00+5зюз694771 0.0 1029581
15:00+7зюз6104745 0.0 1027681
18:00+3юз41159100 0.0 1027276
21:00+3юз5135959 0.0 1027306
27 октября, ср
ср2700:00+2юз5135939 0.0 1027300
03:00+1юз5136246 0.0 1026273
06:00+1юз5136379 0.0 1026266
09:00+3юз614575 0.0 1025372
12:00+7юз812434 0.0 1024613
15:00+9юз712410 0.0 1022821
18:00+6юз7154599 0.0 1022536
21:00+6зюз7145365 0.0 1022591
28 октября, чт
чт2800:00+5зюз61371100 0.0 1022381
03:00+4з51185100 0.0 1022310
06:00+4зюз3790100 0.0 1022222
09:00+5зюз488296 0.0 1023269
12:00+9зюз6106496 0.0 1022620
15:00+8зюз61374100 0.0 1020571
18:00+9зюз71375100 0.3 1020688
21:00+8з61278100 0.4 1019546
29 октября, пт
пт2900:00+8з61287100 0.2 1019568
03:00+8зсз5109099 0.3 1020494
06:00+8сз499354 0.0 1021370
09:00+8зсз3792100 0.1 1023242
12:00+11ссз457714 0.1 1024487
15:00+11ссв3371100 0.1 1025912
18:00+9всв4583100 0.1 1027257
21:00+8в3682100 0.1 1028282